Kecskemet, Hungary

2:24 PM CET on February 08, 2016 (GMT +0100)
Kecskemet

Weather History for LHKE - October, 2012

Change the Weather History Date:

Sunday, October 14, 2012

  Actual Average (LHBP) Record (LHBP)
Temperature  
Mean Temperature 54 °F -  
Max Temperature 59 °F 59 °F 77 °F (2000)
Min Temperature 50 °F 39 °F 24 °F (2007)
Degree Days  
Heating Degree Days 10    
Growing Degree Days 4 (Base 50)    
Moisture  
Dew Point 53 °F    
Average Humidity 94    
Maximum Humidity 100    
Minimum Humidity 82    
Precipitation  
Precipitation 0.00 in - - ()
Sea Level Pressure  
Sea Level Pressure 29.85 in    
Wind  
Wind Speed 3 mph ()    
Max Wind Speed 7 mph    
Max Gust Speed -    
Visibility 2.7 miles    
Events Fog , Rain    
Averages and records for this station are not official NWS values.
T = Trace of Precipitation, MM = Missing Value Source: Averaged Metar Reports

Daily Weather History Graph

Daily Weather History Graph

Search for Another Location

Airport or City:

Trip Planner

Search our weather history database for the weather conditions in past years. The results will help you decide how hot, cold, wet, or windy it might be!

Date:

Astronomy

Oct. 14, 2012 Rise Set
Actual Time 6:57 AM CEST 5:55 PM CEST
Civil Twilight 6:27 AM CEST 6:25 PM CEST
Nautical Twilight 5:51 AM CEST 7:00 PM CEST
Astronomical Twilight 5:16 AM CEST 7:36 PM CEST
Moon 5:33 AM CEST (10/14) 5:04 PM CEST (10/14)
Length of Visible Light 11h 58m
Length of Day
10h 57m
Waning Crescent, 2% of the Moon is Illuminated
Oct 14
Waning Crescent
Oct 15
New
Oct 22
First Quarter
Oct 29
Full
Nov 7
Last Quarter

Hourly Weather History & Observations

Time (CEST) Temp. Dew Point Humidity Pressure Visibility Wind Dir Wind Speed Gust Speed Precip Events Conditions
12:15 AM 53.6 °F 48.2 °F 82% 29.89 in 5.0 mi ESE 4.5 mph - N/A   Unknown
12:45 AM 51.8 °F 48.2 °F 88% 29.89 in 5.0 mi ESE 2.2 mph - N/A   Unknown
1:20 AM 51.8 °F 48.2 °F 88% 29.89 in 5.0 mi ESE 2.2 mph - N/A Rain Light Rain
1:45 AM 51.8 °F 50.0 °F 94% 29.89 in 5.0 mi SE 2.2 mph - N/A   Unknown
2:45 AM 51.8 °F 50.0 °F 94% 29.86 in 5.0 mi SE 2.2 mph - N/A   Unknown
3:15 AM 51.8 °F 50.0 °F 94% 29.86 in 3.7 mi SE 4.5 mph - N/A   Unknown
3:22 AM 51.8 °F 50.0 °F 94% 29.86 in 3.1 mi SE 4.5 mph - N/A   Overcast
3:45 AM - - N/A% - 3.1 mi ESE 6.7 mph - N/A   Overcast
4:15 AM 51.8 °F 50.0 °F 94% 29.83 in 2.5 mi SSE 4.5 mph - N/A   Overcast
4:45 AM 50.0 °F 50.0 °F 100% 29.83 in 1.9 mi SSE 2.2 mph - N/A   Overcast
6:15 AM 51.8 °F 51.8 °F 100% 29.86 in 1.9 mi NNW 2.2 mph - N/A   Overcast
6:45 AM 51.8 °F 51.8 °F 100% 29.83 in 1.9 mi East 2.2 mph - N/A   Overcast
7:15 AM 51.8 °F 51.8 °F 100% 29.83 in 1.6 mi East 2.2 mph - N/A   Overcast
7:45 AM 51.8 °F 51.8 °F 100% 29.86 in 1.6 mi ESE 2.2 mph - N/A   Overcast
8:15 AM 51.8 °F 51.8 °F 100% 29.86 in 1.6 mi East 2.2 mph - N/A   Overcast
8:45 AM 51.8 °F 51.8 °F 100% 29.86 in 1.6 mi Calm Calm - N/A   Overcast
9:15 AM 53.6 °F 51.8 °F 94% 29.86 in 1.2 mi ENE 2.2 mph - N/A   Overcast
9:45 AM - - N/A% - 3.1 mi East 4.5 mph - N/A   Overcast
10:15 AM 53.6 °F 53.6 °F 100% 29.86 in 1.2 mi East 2.2 mph - N/A   Overcast
10:53 AM 53.6 °F 53.6 °F 100% 29.86 in 0.7 mi NE 2.2 mph - N/A   Light Drizzle
11:09 AM 53.6 °F 53.6 °F 100% 29.86 in 0.5 mi ENE 2.2 mph - N/A Fog Light Drizzle
11:10 AM - - N/A% - 3.1 mi East 4.5 mph - N/A   Overcast
11:15 AM 53.6 °F 53.6 °F 100% 29.86 in 0.5 mi East 2.2 mph - N/A Fog Light Drizzle
11:45 AM 55.4 °F 55.4 °F 100% 29.86 in 0.5 mi East 2.2 mph - N/A Fog Light Drizzle
12:15 PM 55.4 °F 55.4 °F 100% 29.86 in 0.6 mi Calm Calm - N/A   Light Drizzle
12:45 PM - - N/A% - 3.1 mi ESE 4.5 mph - N/A   Overcast
1:03 PM 55.4 °F 55.4 °F 100% 29.83 in 0.9 mi SSE 2.2 mph - N/A   Drizzle
1:15 PM 55.4 °F 55.4 °F 100% 29.83 in 1.2 mi SSE 2.2 mph - N/A Rain Light Rain
1:45 PM 57.2 °F 53.6 °F 88% 29.83 in 1.9 mi SSE 2.2 mph - N/A   Overcast
2:15 PM 57.2 °F 53.6 °F 88% 29.83 in 2.5 mi ESE 2.2 mph - N/A   Overcast
2:45 PM 57.2 °F 53.6 °F 88% 29.83 in 2.5 mi SE 2.2 mph - N/A   Overcast
3:15 PM 57.2 °F 53.6 °F 88% 29.83 in 2.5 mi SE 4.5 mph - N/A   Overcast
3:45 PM - - N/A% - 3.1 mi ESE 4.5 mph - N/A   Overcast
4:04 PM 57.2 °F 53.6 °F 88% 29.83 in 3.1 mi SE 4.5 mph - N/A   Overcast
4:15 PM 59.0 °F 53.6 °F 82% 29.83 in 3.1 mi SE 4.5 mph - N/A   Overcast
4:45 PM 59.0 °F 53.6 °F 82% 29.83 in 3.1 mi SE 4.5 mph - N/A   Overcast
5:15 PM 57.2 °F 53.6 °F 88% 29.83 in 3.1 mi SE 6.7 mph - N/A   Overcast
5:45 PM 57.2 °F 53.6 °F 88% 29.83 in 3.1 mi SE 4.5 mph - N/A   Overcast
6:15 PM 57.2 °F 53.6 °F 88% 29.83 in 3.1 mi SE 4.5 mph - N/A   Overcast
6:45 PM - - N/A% - 3.1 mi ESE 4.5 mph - N/A   Overcast
7:15 PM 57.2 °F 55.4 °F 94% 29.83 in 3.1 mi SE 2.2 mph - N/A   Overcast
7:45 PM 57.2 °F 55.4 °F 94% 29.83 in 3.1 mi SE 4.5 mph - N/A   Overcast
8:15 PM 57.2 °F 55.4 °F 94% 29.83 in 3.7 mi SE 4.5 mph - N/A   Overcast
8:45 PM 57.2 °F 55.4 °F 94% 29.83 in 3.7 mi SE 4.5 mph - N/A   Overcast
9:15 PM 57.2 °F 55.4 °F 94% 29.83 in 3.7 mi ESE 4.5 mph - N/A   Overcast
9:45 PM - - N/A% - 3.1 mi ESE 4.5 mph - N/A   Overcast
10:15 PM 57.2 °F 55.4 °F 94% 29.83 in 3.1 mi SSE 4.5 mph - N/A   Overcast
10:45 PM 57.2 °F 55.4 °F 94% 29.86 in 3.1 mi SSE 4.5 mph - N/A   Overcast
11:15 PM 57.2 °F 55.4 °F 94% 29.86 in 3.1 mi SSE 6.7 mph - N/A   Overcast
11:45 PM 57.2 °F 55.4 °F 94% 29.83 in 3.1 mi SSE 6.7 mph - N/A   Overcast